Lapse_Rate
7.5 7.4 7.3 7.1 6.8 6.8 6.7 6.6 6.4 6.9 6.7 6.7 6.6 6.4 6.1 6.2 6.3 6.2 6.0 6.1 6.2 6.1 5.9 6.2 6.3 6.2 5.9 5.6 5.4 5.3 5.2 4.8 4.1 3.7 3.8 4.2 4.2 3.8 4.0 4.5 4.9 5.8 6.5 6.7
7.2 7.2 7.0 6.9 6.9 6.9 6.7 6.7 6.7 6.4 6.3 6.5 6.3 6.2 6.1 6.2 6.1 6.1 6.2 6.2 6.1 6.4 6.6 6.4 6.3 6.0 5.6 5.3 5.2 5.0 4.8 4.3 4.2 4.2 4.3 4.5 4.7 4.7 4.8 5.0 5.7 6.4 7.1 7.2
6.7 7.0 6.8 6.4 7.3 7.0 6.9 6.8 6.6 6.3 6.4 6.3 6.3 6.2 6.0 6.0 6.0 6.0 6.2 6.4 6.4 6.4 6.2 6.0 5.8 5.5 5.3 5.2 5.0 4.6 4.2 4.1 4.0 4.1 4.4 4.7 4.8 5.0 5.3 5.8 6.1 6.5 6.8 7.5
6.8 6.7 4.6 7.1 7.2 7.2 6.8 6.7 6.7 6.6 6.4 6.3 6.0 5.9 5.8 5.9 5.9 6.1 6.3 6.5 6.3 6.0 5.5 5.4 5.4 5.3 5.2 4.9 4.4 4.1 4.2 4.2 4.2 4.5 4.6 4.8 5.1 5.6 6.0 6.3 6.2 6.5 6.7 6.9
6.5 6.2 6.6 6.7 7.2 7.2 6.9 6.8 6.8 6.5 6.3 6.1 5.9 5.7 5.8 5.8 5.9 6.0 6.2 6.0 5.7 5.6 5.4 5.3 5.3 5.1 4.6 4.4 4.2 4.2 4.3 4.4 4.5 4.5 4.8 5.1 5.5 6.2 6.7 6.5 6.7 6.7 6.6 6.6
6.2 6.1 4.0 7.0 7.3 7.1 6.5 6.2 6.7 6.5 6.2 6.0 5.9 5.9 5.9 5.8 5.9 6.1 6.1 5.8 5.5 5.4 5.4 5.4 5.0 4.7 4.6 4.4 4.2 4.3 4.4 4.5 4.7 4.9 5.1 5.6 6.1 6.7 7.1 6.9 6.9 6.9 6.6 6.6
6.0 6.0 6.3 7.0 6.8 6.6 6.0 6.6 6.4 6.1 5.9 5.6 5.7 5.8 5.7 5.7 5.9 6.0 5.8 5.5 5.4 5.3 5.2 5.0 4.9 4.7 4.5 4.3 4.2 4.4 4.6 4.9 5.2 5.4 5.6 6.2 6.5 6.9 7.0 6.9 6.8 6.8 6.7 6.8
6.0 5.7 5.8 7.0 6.5 6.4 6.8 6.4 6.1 5.9 5.7 5.7 5.7 5.6 5.3 5.4 5.7 5.6 5.4 5.3 5.3 5.2 5.2 5.0 4.7 4.5 4.3 4.2 4.5 4.8 5.0 5.3 5.8 6.1 6.4 6.7 7.0 7.2 7.0 6.9 6.9 6.8 6.9 6.9
6.6 6.9 6.9 6.5 6.3 6.1 6.0 5.9 5.8 5.6 5.6 5.6 5.6 5.5 5.2 5.4 5.4 5.3 5.2 5.2 5.1 5.1 5.0 4.8 4.5 4.4 4.3 4.6 4.9 5.1 5.4 6.0 6.4 6.7 6.9 7.0 7.2 7.2 7.0 6.9 6.9 6.9 6.9 7.0
6.6 6.9 6.8 6.4 6.2 6.1 5.9 5.8 5.7 5.6 5.5 5.6 5.7 5.4 5.2 5.2 5.1 5.1 5.0 5.0 5.0 5.0 5.0 4.7 4.5 4.6 4.7 5.0 5.2 5.6 6.2 6.6 6.9 7.1 7.1 7.2 7.3 7.1 6.8 6.8 6.9 6.9 7.0 7.1
6.3 6.6 6.3 6.2 6.2 6.0 5.8 5.7 5.7 5.5 5.7 5.8 5.7 5.4 5.1 4.9 4.9 4.9 4.9 5.0 5.0 5.0 4.9 4.7 4.8 4.9 5.0 5.3 5.7 6.3 6.8 6.9 7.1 7.3 7.2 7.2 7.2 7.0 6.9 6.9 6.9 7.0 7.1 7.2
6.3 6.4 6.2 6.1 6.1 5.9 5.9 5.9 5.8 5.9 6.0 5.8 5.6 5.0 4.8 4.9 4.9 4.9 4.9 5.0 5.1 5.1 5.0 4.9 5.0 5.2 5.3 5.7 6.3 6.7 7.0 7.1 7.2 7.4 7.3 7.3 7.1 7.1 7.0 7.0 7.0 7.1 7.3 7.4
6.6 6.5 6.4 6.4 6.3 6.2 6.1 6.0 5.8 6.1 5.9 5.6 5.2 4.9 4.9 4.8 4.8 4.9 5.0 5.1 5.1 5.1 5.1 5.1 5.2 5.4 5.8 6.2 6.5 6.7 7.1 7.2 7.3 7.3 7.2 7.2 7.2 7.2 7.1 7.1 7.1 7.1 7.3 7.4
6.9 6.6 6.5 6.4 6.1 5.9 5.8 5.9 5.9 5.9 5.7 5.2 4.8 4.6 4.7 4.7 4.9 5.0 5.1 5.2 5.2 5.3 5.2 5.3 5.5 5.8 6.2 6.4 6.5 7.0 7.3 7.3 7.3 7.1 7.1 7.2 7.3 7.2 7.2 7.3 7.2 7.1 7.4 7.5
6.5 6.5 6.4 6.1 5.8 5.7 5.9 6.0 5.7 5.5 5.2 4.8 4.5 4.5 4.6 4.8 5.1 5.2 5.3 5.3 5.5 5.5 5.3 5.4 5.8 6.2 6.5 6.5 6.8 7.2 7.4 7.3 7.2 7.1 7.2 7.4 7.4 7.4 7.3 7.3 7.4 7.4 7.5 7.6
6.3 6.2 5.8 5.6 5.8 5.6 6.0 5.9 5.1 4.8 4.7 4.4 4.4 4.8 5.1 5.2 5.3 5.5 5.4 5.6 5.6 5.5 5.5 5.8 6.2 6.5 6.6 6.7 7.1 7.3 7.3 7.3 7.2 7.2 7.2 7.4 7.5 7.5 7.4 7.3 7.4 7.5 7.5 7.6
5.9 5.4 5.7 5.9 5.9 5.8 5.2 4.9 4.7 4.6 4.5 4.5 5.1 5.3 5.4 5.6 5.6 5.6 5.7 5.6 5.5 5.5 6.0 6.3 6.5 6.7 6.7 7.0 7.3 7.4 7.3 7.4 7.3 7.3 7.2 7.4 7.6 7.6 7.4 7.4 7.4 7.4 7.5 7.6
5.4 5.8 5.7 5.6 5.1 4.9 4.6 4.5 4.3 4.5 5.0 5.3 5.5 5.6 5.7 5.7 5.9 6.0 5.7 5.7 5.9 5.9 6.5 6.6 6.7 6.9 7.0 7.2 7.5 7.5 7.4 7.3 7.3 7.4 7.4 7.3 7.4 7.5 7.4 7.4 7.4 7.4 7.4 7.5
5.5 5.4 5.1 4.7 4.4 4.3 4.2 4.4 4.9 5.2 5.4 5.6 5.8 5.9 6.1 6.1 6.0 5.8 5.6 5.8 6.2 6.3 6.6 6.7 6.9 7.2 7.4 7.5 7.7 7.8 7.6 7.5 7.4 7.3 7.3 7.3 7.2 7.3 7.3 7.3 7.4 7.4 7.4 7.5
4.7 4.4 4.2 4.1 4.3 4.6 5.0 5.2 5.5 5.7 5.9 6.0 6.2 6.3 6.2 6.0 5.7 5.7 5.8 6.1 6.4 6.4 6.5 6.6 7.2 7.6 7.7 7.9 8.0 7.9 7.8 7.6 7.5 7.3 7.2 7.1 7.2 7.3 7.3 7.4 7.4 7.5 7.5 7.5
4.2 4.3 4.7 5.0 5.3 5.3 5.6 5.8 5.9 6.0 6.1 6.3 6.3 6.2 6.0 5.9 5.8 6.0 6.2 6.5 6.7 6.6 6.5 6.9 7.5 7.7 7.9 8.0 8.1 8.1 7.9 7.7 7.5 7.3 7.2 7.2 7.1 7.1 7.2 7.3 7.4 7.5 7.5 7.6
4.7 5.0 5.3 5.5 5.7 5.8 5.9 5.9 6.0 6.1 6.4 6.5 6.3 6.2 6.1 6.0 6.1 6.2 6.7 6.7 6.7 6.7 6.6 7.1 7.8 8.0 8.0 8.0 8.1 8.0 7.9 7.7 7.6 7.4 7.3 7.2 7.2 7.2 7.2 7.3 7.4 7.5 7.6 7.7
5.4 5.6 5.6 5.8 5.9 5.9 6.0 6.1 6.4 6.6 6.7 6.5 6.4 6.2 6.1 6.2 6.3 6.7 6.7 6.7 6.6 6.4 6.6 7.1 7.7 7.8 7.8 7.9 7.9 7.9 7.7 7.6 7.4 7.2 7.2 7.2 7.2 7.2 7.3 7.4 7.5 7.6 7.7 7.7
5.7 5.8 5.8 5.8 5.9 6.2 6.5 6.7 6.7 6.6 6.4 6.3 6.3 6.2 6.3 6.4 6.6 6.5 6.4 6.5 6.3 6.3 6.5 7.1 7.6 7.6 7.6 7.6 7.7 7.7 7.6 7.5 7.3 7.2 7.1 7.1 7.2 7.1 7.1 7.2 7.3 7.6 7.6 7.6
5.8 5.9 6.0 6.4 6.7 6.6 6.5 6.5 6.5 6.5 6.4 6.3 6.3 6.3 6.3 6.3 6.3 6.4 6.4 6.4 6.2 6.3 6.6 7.0 7.3 7.3 7.3 7.4 7.5 7.5 7.4 7.3 7.3 7.2 7.0 7.0 7.0 7.1 7.1 7.2 7.2 7.3 7.7 7.9
6.6 6.6 6.7 6.6 6.5 6.5 6.7 6.9 6.9 6.9 6.8 6.6 6.6 6.4 6.3 6.2 6.1 6.2 6.1 6.0 6.0 6.2 6.3 6.7 7.1 7.1 7.3 7.5 7.5 7.5 7.5 7.4 7.3 7.3 7.2 7.1 7.1 7.0 7.0 7.1 7.1 7.2 7.4 7.7
6.8 6.7 6.8 6.9 7.0 7.1 7.1 7.1 7.1 7.1 7.0 6.8 6.7 6.6 6.4 6.3 6.1 6.0 6.0 6.0 5.9 6.1 6.2 6.7 6.9 7.0 7.2 7.5 7.6 7.6 7.6 7.5 7.3 7.1 7.0 7.0 6.9 6.8 6.8 7.0 7.1 7.2 7.2 7.3
Wind_Speed
4 4 2 1 4 5 6 5 6 5 8 5 9 8 6 6 5 5 3 3 2 2 4 5 5 5 4 4 5 4 5 5 6 6 5 6 6 6 5 5 5 2 4 6
1 5 6 3 5 7 5 4 5 3 3 5 4 5 5 6 4 2 0 2 3 5 6 6 4 4 4 4 5 4 6 5 5 6 6 6 6 5 3 3 4 5 5 0
3 4 4 6 8 8 4 2 6 6 7 7 5 6 6 5 2 1 2 3 4 4 5 4 3 2 4 5 6 6 4 4 5 6 6 6 6 3 2 3 0 2 4 3
2 3 1 6 5 5 5 2 3 3 8 7 5 3 4 2 2 4 4 4 5 3 3 2 3 5 6 7 6 5 4 4 5 6 6 7 6 3 2 1 3 4 2 3
3 3 5 4 4 6 6 7 6 7 6 5 5 4 4 6 6 5 3 3 3 1 0 3 6 7 6 6 5 4 5 5 6 6 6 6 5 6 6 5 3 2 3 2
3 4 6 5 2 5 4 5 9 8 9 7 7 3 4 8 5 3 3 3 3 4 3 4 5 4 4 5 6 6 5 6 6 5 5 6 5 4 3 1 3 3 3 2
2 3 8 6 4 3 5 7 7 10 10 8 6 4 2 6 3 3 4 6 3 3 2 4 4 4 6 6 7 9 6 5 5 5 6 5 5 2 3 3 3 2 1 1
3 2 7 7 4 7 6 1 7 6 6 7 4 5 5 5 7 5 5 3 4 3 4 4 5 6 6 7 9 10 5 4 4 5 5 5 4 2 2 3 3 1 1 3
9 6 4 5 3 0 4 5 6 7 5 6 7 6 6 6 6 4 3 2 1 3 4 5 5 5 6 8 8 8 4 4 5 6 5 4 2 2 2 1 1 2 2 2
3 4 6 5 1 3 3 5 6 6 6 7 6 6 6 5 4 3 1 2 3 4 5 6 4 5 6 6 6 6 9 8 5 5 3 2 2 1 1 1 1 2 2 2
4 4 1 5 5 5 5 6 6 6 5 7 8 6 5 4 4 2 1 3 3 4 5 6 5 5 6 6 5 8 6 7 4 3 3 2 2 1 1 3 3 2 3 3
6 6 5 4 7 7 7 6 7 8 5 4 5 7 5 5 3 1 3 3 4 5 5 6 5 5 5 8 7 7 6 5 2 1 1 1 1 2 4 5 6 5 5 6
3 2 2 3 7 5 6 7 6 7 7 7 4 5 5 2 2 1 3 4 5 5 6 6 6 6 10 8 5 6 5 5 1 1 2 2 2 3 2 5 6 5 5 5
5 7 4 2 4 6 6 6 9 8 6 5 5 3 3 2 1 3 4 5 5 6 6 6 9 10 8 8 6 4 4 5 2 3 3 2 2 3 2 2 2 3 5 3
3 3 2 6 6 5 9 10 9 8 5 4 3 2 2 1 3 4 4 4 4 7 10 10 11 10 7 4 4 5 3 3 3 2 3 4 3 3 2 3 3 3 2 3
3 6 8 10 10 10 9 6 7 5 4 3 2 0 1 1 2 3 4 5 5 9 10 12 9 9 5 5 5 4 3 4 3 3 3 2 2 2 2 3 3 3 2 3
9 7 10 11 12 7 3 3 4 3 3 1 1 1 2 1 3 3 4 5 5 8 8 6 11 8 4 5 6 3 2 3 5 3 3 3 3 3 4 3 4 3 4 3
14 13 13 9 6 5 4 3 1 0 0 1 1 0 2 2 5 5 6 6 5 7 8 7 7 6 6 4 6 4 3 4 3 3 3 3 3 3 4 3 4 4 4 3
11 7 5 6 5 4 2 0 1 2 2 3 2 4 4 5 5 6 8 6 6 7 7 6 7 6 7 7 6 3 4 4 4 3 3 5 4 4 4 4 4 4 4 4
7 5 5 4 2 1 1 3 2 3 5 3 3 3 6 6 5 6 5 8 8 8 6 7 7 7 8 9 8 5 7 6 6 5 4 5 5 6 5 5 4 4 4 4
6 5 4 3 2 2 3 3 2 5 7 3 4 6 6 6 4 5 6 6 8 6 6 6 7 7 7 7 7 7 6 7 6 6 6 6 6 5 5 5 5 4 4 3
2 1 1 2 2 5 5 5 5 5 6 6 5 5 5 7 6 6 6 8 8 7 5 6 6 9 10 13 8 8 8 8 7 6 6 6 6 6 7 6 6 5 4 4
3 2 3 3 3 6 6 5 5 5 6 6 7 6 6 6 4 6 7 4 4 5 7 8 12 12 11 8 8 8 8 9 8 7 7 7 7 7 7 7 6 5 5 5
3 4 4 5 4 3 6 7 7 6 6 7 7 6 5 6 5 4 6 6 7 6 5 7 9 13 13 7 7 7 7 8 8 8 8 10 8 8 7 7 6 6 5 5
3 4 3 4 5 5 7 9 6 7 7 7 7 6 7 5 6 4 2 4 5 4 4 7 11 12 8 8 8 8 8 7 8 8 8 8 8 8 8 7 7 6 4 4
5 4 4 5 4 5 6 6 7 8 6 5 5 5 4 4 3 3 3 1 2 4 3 3 6 7 7 8 10 10 10 10 9 8 9 9 9 8 7 6 5 4 4 3
5 6 7 7 6 8 8 9 8 10 8 5 7 7 5 4 3 2 3 1 2 3 3 3 3 6 8 9 10 10 10 10 12 11 9 8 7 7 5 4 3 3 2 1
Wind_Direction
59 18 5 174 169 184 196 189 170 239 210 198 176 168 165 139 122 100 77 42 7 319 324 347 340 324 338 352 347 329 324 328 317 308 307 302 285 278 286 287 286 63 331 284
114 5 3 283 224 243 226 204 242 147 227 161 140 130 131 139 137 137 115 288 338 360 345 333 339 4 353 339 326 323 349 349 343 340 335 326 309 286 302 358 332 337 286 8
257 349 335 331 223 194 186 204 149 180 214 154 167 167 168 172 173 217 279 287 309 310 299 307 359 349 333 319 325 336 331 342 335 320 306 297 289 321 333 285 13 247 231 134
197 16 355 240 311 224 174 208 183 111 154 162 166 166 155 174 190 236 247 271 289 296 344 4 354 346 334 338 320 317 319 295 300 300 295 299 312 296 278 283 261 285 96 115
141 202 299 295 188 150 170 247 197 157 146 152 112 83 270 218 214 213 212 254 241 242 238 1 353 337 322 311 303 283 286 296 309 310 311 314 300 299 292 285 254 165 141 113
136 146 215 240 224 134 104 297 181 157 173 163 133 175 250 190 202 194 181 155 81 51 13 354 323 327 343 336 325 285 289 298 305 307 302 297 291 269 259 271 154 135 147 72
142 226 287 235 190 121 103 237 167 176 179 161 181 197 183 135 147 139 110 112 91 49 1 322 334 344 352 339 330 308 289 309 322 325 316 305 309 339 103 119 129 89 58 312
106 85 276 172 88 168 207 62 163 146 159 175 184 161 165 156 140 131 134 82 52 19 342 335 350 7 346 331 318 309 291 299 306 308 312 316 296 249 199 150 157 169 346 313
185 213 243 231 238 24 149 145 169 150 166 159 158 181 159 149 139 139 107 52 344 344 340 343 354 14 334 319 322 318 314 326 318 308 313 322 33 96 88 125 121 272 243 273
98 244 233 256 183 187 163 145 144 146 147 148 160 154 141 140 141 138 82 4 337 347 344 330 331 332 297 302 311 329 322 307 295 298 321 20 359 292 169 144 240 256 269 267
259 274 279 251 224 172 129 124 131 143 153 155 138 151 147 141 153 147 37 332 329 329 318 302 306 298 296 303 308 319 313 318 311 330 320 28 38 4 271 247 203 224 241 223
228 213 179 224 186 157 143 161 158 145 112 102 134 146 133 155 162 126 336 320 325 314 310 297 302 307 315 326 324 308 308 309 293 322 67 298 4 311 282 266 277 278 291 210
241 127 107 75 129 140 152 155 145 120 130 128 119 135 134 140 174 248 316 321 323 311 305 303 310 299 324 314 295 286 293 312 226 191 235 250 308 279 276 313 325 319 312 320
126 114 62 215 178 167 136 120 105 96 99 119 119 105 132 170 128 341 338 330 327 323 313 317 320 318 297 316 300 278 273 292 272 235 238 226 242 268 265 233 261 286 305 314
171 8 172 124 116 103 109 111 105 109 112 115 115 144 183 158 335 328 331 331 326 324 327 321 314 296 293 298 289 278 271 261 268 233 246 242 241 263 248 273 239 251 316 323
108 88 90 99 95 84 86 78 107 124 142 166 187 238 110 286 288 316 321 310 328 324 314 315 298 294 287 283 265 263 248 237 240 245 255 268 271 265 274 265 268 256 270 251
125 97 96 84 79 83 107 86 106 145 171 215 275 308 328 345 305 304 307 293 279 306 294 292 290 295 273 302 276 252 259 271 262 244 249 243 250 256 253 245 259 263 257 238
86 85 86 119 159 149 145 140 178 243 238 277 354 15 296 267 257 272 270 260 255 264 277 267 264 269 258 263 271 272 238 241 243 236 251 255 258 252 252 248 254 252 267 265
97 125 132 124 137 134 130 13 308 275 274 235 243 277 249 257 258 263 269 271 268 279 284 260 264 253 256 246 232 228 238 246 260 258 245 261 274 257 251 246 256 257 257 267
102 100 119 127 105 113 217 252 241 279 283 237 241 275 277 270 255 268 271 270 273 271 282 276 273 274 264 260 235 230 230 224 235 243 244 249 252 255 253 248 245 246 254 253
102 87 73 47 324 296 249 260 247 269 272 217 225 258 255 276 267 273 291 288 288 274 281 285 291 287 288 277 262 247 233 236 235 238 240 243 251 248 250 248 240 237 250 245
69 54 306 286 277 291 282 268 247 256 270 275 253 246 245 268 264 264 241 260 288 281 281 294 288 277 284 291 287 267 252 245 240 235 237 238 241 246 249 248 243 239 238 240
19 359 328 313 287 289 300 290 269 242 259 260 259 252 234 238 233 279 292 249 253 281 302 304 303 291 287 291 287 280 267 256 241 238 239 240 238 236 239 241 234 226 232 240
358 344 317 312 327 322 303 294 284 268 243 256 248 238 221 262 269 241 251 280 281 290 291 310 315 314 308 299 289 283 272 268 260 256 250 241 240 234 231 232 227 223 221 233
337 311 299 305 304 298 293 295 289 281 270 262 250 229 226 229 221 267 241 273 285 320 307 324 320 328 324 317 309 298 286 274 267 266 261 254 250 245 238 217 220 212 210 219
0 349 332 326 305 313 319 319 307 297 281 271 260 257 258 245 249 266 263 329 13 327 300 313 347 334 327 323 319 313 308 300 288 271 257 261 259 251 236 213 204 188 193 218
16 12 360 353 353 340 330 322 312 308 294 264 274 273 252 253 246 226 103 21 325 319 326 330 324 350 347 345 342 335 329 324 319 300 271 265 258 250 218 199 178 150 162 195